TimeCST,TemperatureF,Dew PointF,Humidity,Sea Level PressureIn,VisibilityMPH,Wind Direction,Wind SpeedMPH,Gust SpeedMPH,PrecipitationIn,Events,Conditions,WindDirDegrees,DateUTC
12:52 AM,21.9,16.0,78,29.94,10.0,SSE,6.9,-,N/A,,Overcast,150,2013-02-12 06:52:00
1:52 AM,25.0,17.1,72,29.90,10.0,SSW,5.8,-,N/A,,Mostly Cloudy,210,2013-02-12 07:52:00
2:52 AM,26.1,15.1,63,29.90,10.0,West,6.9,-,N/A,,Clear,260,2013-02-12 08:52:00
3:52 AM,25.0,12.9,60,29.89,10.0,WNW,4.6,-,N/A,,Clear,290,2013-02-12 09:52:00
4:52 AM,24.1,12.9,62,29.88,10.0,Calm,Calm,-,N/A,,Clear,0,2013-02-12 10:52:00
5:52 AM,19.0,10.9,71,29.91,10.0,WNW,6.9,-,N/A,,Clear,290,2013-02-12 11:52:00
6:52 AM,18.0,10.9,74,29.93,10.0,North,5.8,-,N/A,,Clear,350,2013-02-12 12:52:00
7:52 AM,14.0,9.0,80,29.94,10.0,NW,4.6,-,N/A,,Clear,310,2013-02-12 13:52:00
8:52 AM,19.0,12.0,74,29.94,10.0,Calm,Calm,-,N/A,,Clear,0,2013-02-12 14:52:00
9:52 AM,26.1,17.1,69,29.94,10.0,WNW,4.6,-,N/A,,Clear,300,2013-02-12 15:52:00
10:52 AM,28.9,19.9,69,29.94,10.0,WNW,12.7,-,N/A,,Clear,300,2013-02-12 16:52:00
11:52 AM,33.1,23.0,66,29.94,10.0,NNW,6.9,-,N/A,,Clear,340,2013-02-12 17:52:00
12:52 PM,35.1,24.1,64,29.92,10.0,NNW,13.8,-,N/A,,Clear,330,2013-02-12 18:52:00
1:52 PM,39.0,26.1,60,29.90,10.0,NW,15.0,-,N/A,,Clear,320,2013-02-12 19:52:00
2:52 PM,41.0,27.0,57,29.88,10.0,NNW,11.5,-,N/A,,Clear,340,2013-02-12 20:52:00
3:52 PM,42.1,27.0,55,29.88,10.0,NNW,8.1,-,N/A,,Clear,340,2013-02-12 21:52:00
4:52 PM,41.0,27.0,57,29.88,10.0,NW,9.2,-,N/A,,Clear,320,2013-02-12 22:52:00
5:52 PM,37.9,26.1,62,29.90,10.0,NNW,5.8,-,N/A,,Clear,330,2013-02-12 23:52:00
6:52 PM,34.0,26.1,73,29.92,10.0,North,5.8,-,N/A,,Mostly Cloudy,360,2013-02-13 00:52:00
7:52 PM,32.0,26.1,79,29.92,10.0,North,3.5,-,N/A,,Overcast,350,2013-02-13 01:52:00
8:52 PM,33.1,27.0,78,29.91,10.0,Calm,Calm,-,N/A,,Overcast,0,2013-02-13 02:52:00
9:52 PM,34.0,26.1,73,29.88,10.0,Calm,Calm,-,N/A,,Overcast,0,2013-02-13 03:52:00
10:52 PM,30.9,26.1,82,29.86,10.0,SSE,4.6,-,N/A,,Overcast,160,2013-02-13 04:52:00
11:52 PM,30.9,25.0,79,29.84,10.0,South,3.5,-,N/A,,Mostly Cloudy,170,2013-02-13 05:52:00